This is the latest recevied weather packets stored in our database for station/object W2SBL-1. If no packets are shown the sender has not sent any weather packets the latest 10 day(s).
| Time | Temp. | Humidity | Pressure | Rain* | Wind** | Luminosity | Snow |
|---|---|---|---|---|---|---|---|
| 1788293598 | 31.11° C | 54% | 1013.7 hPa | - | - | - | - |
| 1788292698 | 31.11° C | 55% | 1013.7 hPa | - | - | - | - |
| 1788291798 | 32.22° C | 53% | 1013.8 hPa | - | - | - | - |
| 1788290898 | 34.44° C | 49% | 1013.8 hPa | - | - | - | - |
| 1788289998 | 33.89° C | 49% | 1013.8 hPa | - | - | - | - |
| 1788289098 | 32.78° C | 49% | 1013.8 hPa | - | - | - | - |
| 1788288198 | 31.11° C | 51% | 1013.9 hPa | - | - | - | - |
| 1788287298 | 28.89° C | 54% | 1013.7 hPa | - | - | - | - |
| 1788286397 | 27.22° C | 56% | 1013.9 hPa | - | - | - | - |
| 1788285497 | 26.67° C | 57% | 1013.9 hPa | - | - | - | - |
| 1788284597 | 26.67° C | 56% | 1014 hPa | - | - | - | - |
| 1788283697 | 26.11° C | 57% | 1014.2 hPa | - | - | - | - |
| 1788282797 | 26.11° C | 57% | 1014.3 hPa | - | - | - | - |
| 1788281897 | 17.22° C | 56% | 1000.7 hPa | - | - | - | - |
| 1788280997 | 25.56° C | 57% | 1015 hPa | - | - | - | - |
| 1788280097 | 25.56° C | 57% | 1015 hPa | - | - | - | - |
| 1788279197 | 25.56° C | 57% | 1015.4 hPa | - | - | - | - |
| 1788278297 | 25.56° C | 57% | 1019.8 hPa | - | - | - | - |
| 1788277397 | 25.56° C | 57% | 1015.2 hPa | - | - | - | - |
| 1788276497 | 25° C | 57% | 1015.3 hPa | - | - | - | - |
| 1788275596 | 25° C | 56% | 1015.5 hPa | - | - | - | - |
| 1788274696 | 25.56° C | 56% | 1021.7 hPa | - | - | - | - |
| 1788273796 | 25.56° C | 56% | 1015.8 hPa | - | - | - | - |
| 1788272896 | 25.56° C | 56% | 1015.7 hPa | - | - | - | - |
| 1788271996 | 25.56° C | 56% | 1015.7 hPa | - | - | - | - |
* Rain since midnight (hover to see other rain measurements)
** Current wind speed in m/s (hover to see current wind gust speed)